Content
SEND FEEDBACK

Daily
Averages
Monthly
Summary
United States of America

ROSENBERG, TEXAS


Home > North America > United States > Texas
Elevation: 94 feet     Latitude: 29 31N     Longitude: 095 46W

WEATHER
 
SELECT A DAY
Number of Records: 128,635;   Date Range: 5/12/09 - 9/22/14
 
SHARE

PRINT THIS DATA

[ ← Previous Day ]
WEATHER ALMANAC - FEBRUARY 13, 2013
[ Next Day → ]
[ °C ]   °F
Weather ElementAverageHighLow
Temperature52 °F60.8 °F (3:15 pm)41.4 °F (11:55 pm)
Dewpoint38.6 °F48.2 °F (1:15 am)36.1 °F (4:35 pm)
Humidity61.7 %86 % (11:55 pm)40 % (4:35 pm)
Barometer30.07 in30.13 in (9:15 am)30.01 in (1:15 am)
Wind Speed7.6 mph15 mph (3:35 am)
Wind Gust20.7 mph (2:55 am)
Weather ElementAverage
Visibility10 mi
Wind DirectionWNW (283.1 °)

Weather ElementTotal
Precipitation0.01 in
Heating Degree Days13.9 (Base 65)
Growing Degree Days1.1 (Base 50)
Averaged from 70 records on February 13, 2013
WEATHER CONDITIONS BREAKOUT
WIND DIRECTION BREAKOUT
WEATHER BY HOUR - FEBRUARY 13, 2013
[ °C ]   °F
Local TimeTemperatureDewpointHumidityBarometerVisibilityWind DirectionWind SpeedGust SpeedPrecipitationEventsConditions
12:35 AM55.8 °F47.8 °F75 %30.02 in10.0 miNorth (350°)12.7 mph17.3 mphRainLight Rain
12:55 AM54.5 °F47.7 °F78 %30.02 in10.0 miNNW (340°)9.2 mphLight Drizzle
1:15 AM54.3 °F48.2 °F80 %30.01 in10.0 miNNW (340°)5.8 mphDrizzle
1:35 AM54.0 °F46.9 °F77 %30.05 in10.0 miNW (310°)8.1 mphRainLight Rain
1:55 AM53.4 °F45.7 °F75 %30.04 in10.0 miNNW (330°)8.1 mphRainLight Rain
2:15 AM52.9 °F44.6 °F73 %30.04 in10.0 miNNW (330°)6.9 mphRainLight Rain
2:35 AM52.7 °F44.2 °F73 %30.01 in10.0 miNNW (340°)12.7 mph19.6 mph0.01 inRainLight Rain
2:55 AM52.0 °F44.8 °F76 %30.02 in10.0 miNNW (330°)13.8 mph20.7 mphRainLight Rain
3:15 AM51.1 °F43.0 °F74 %30.04 in10.0 miNNW (330°)13.8 mph19.6 mphDrizzle
3:35 AM49.6 °F41.9 °F75 %30.03 in10.0 miNNW (330°)15.0 mph20.7 mphDrizzle
3:55 AM50.0 °F40.3 °F69 %30.02 in10.0 miNNW (340°)13.8 mph18.4 mphOvercast
4:15 AM50.0 °F39.7 °F68 %30.05 in10.0 miNW (320°)6.9 mph17.3 mphOvercast
4:35 AM48.7 °F40.5 °F73 %30.06 in10.0 miNW (310°)8.1 mphRainLight Rain
4:55 AM48.9 °F39.9 °F71 %30.04 in10.0 miNNW (330°)8.1 mphOvercast
5:15 AM49.1 °F40.1 °F71 %30.06 in10.0 miNorth (350°)11.5 mphOvercast
5:35 AM49.1 °F38.5 °F67 %30.09 in10.0 miNNW (330°)10.4 mphOvercast
5:55 AM48.7 °F38.3 °F67 %30.08 in10.0 miNNW (340°)10.4 mphOvercast
6:15 AM48.6 °F38.1 °F67 %30.08 in10.0 miNNW (340°)13.8 mph18.4 mphOvercast
6:35 AM48.2 °F37.9 °F68 %30.09 in10.0 miNNW (340°)9.2 mphScattered Clouds
6:55 AM47.8 °F37.8 °F68 %30.10 in10.0 miNNW (330°)10.4 mph16.1 mphScattered Clouds
7:15 AM47.5 °F37.4 °F68 %30.12 in10.0 miNNW (330°)10.4 mphScattered Clouds
7:35 AM47.3 °F37.2 °F68 %30.10 in10.0 miNorth (350°)13.8 mphScattered Clouds
7:55 AM46.8 °F37.0 °F69 %30.09 in10.0 miNorth (350°)13.8 mph17.3 mphScattered Clouds
8:15 AM46.4 °F36.7 °F69 %30.10 in10.0 miNNW (340°)10.4 mphScattered Clouds
8:35 AM46.6 °F36.5 °F68 %30.11 in10.0 miNNW (340°)13.8 mph18.4 mphScattered Clouds
8:55 AM46.6 °F36.5 °F68 %30.12 in10.0 miNNW (340°)11.5 mph18.4 mphScattered Clouds
9:15 AM46.9 °F36.7 °F68 %30.13 in10.0 miNorth (360°)13.8 mphScattered Clouds
9:35 AM47.1 °F36.3 °F66 %30.12 in10.0 miNorth (350°)13.8 mph18.4 mphScattered Clouds
9:55 AM48.4 °F37.0 °F65 %30.13 in10.0 miNorth (350°)12.7 mphScattered Clouds
10:15 AM48.4 °F36.9 °F64 %30.12 in10.0 miNorth (350°)11.5 mphClear
10:35 AM49.8 °F37.2 °F62 %30.12 in10.0 miNorth (360°)11.5 mphScattered Clouds
10:55 AM50.9 °F37.6 °F60 %30.13 in10.0 miNorth (10°)6.9 mphScattered Clouds
11:15 AM51.6 °F37.0 °F58 %30.12 in10.0 miNNW (330°)8.1 mphScattered Clouds
11:35 AM53.8 °F37.8 °F55 %30.13 in10.0 miNNW (330°)11.5 mph16.1 mphScattered Clouds
11:55 AM54.0 °F37.4 °F54 %30.12 in10.0 miNW (320°)8.1 mphScattered Clouds
12:15 PM54.0 °F36.7 °F52 %30.12 in10.0 miNorth (350°)9.2 mph18.4 mphScattered Clouds
12:35 PM55.4 °F36.9 °F50 %30.11 in10.0 miNorth (350°)6.9 mphScattered Clouds
12:55 PM55.8 °F37.8 °F51 %30.10 in10.0 miNNW (340°)6.9 mphClear
1:15 PM56.8 °F37.0 °F48 %30.09 in10.0 miNorth (350°)8.1 mph17.3 mphClear
1:35 PM58.3 °F37.0 °F45 %30.08 in10.0 miNNW (340°)10.4 mphClear
1:55 PM59.0 °F38.1 °F46 %30.07 in10.0 miNW (320°)11.5 mphClear
2:15 PM58.8 °F36.9 °F44 %30.06 in10.0 miWNW (300°)8.1 mphClear
2:35 PM59.5 °F37.4 °F44 %30.06 in10.0 miWNW (300°)10.4 mphClear
2:55 PM60.3 °F37.9 °F44 %30.05 in10.0 miNW (310°)3.5 mphClear
3:15 PM60.8 °F37.2 °F42 %30.05 in10.0 miNW (320°)5.8 mphClear
3:35 PM60.6 °F36.5 °F41 %30.04 in10.0 miNNW (340°)8.1 mphClear
3:55 PM60.8 °F37.0 °F41 %30.04 in10.0 miNorth (350°)6.9 mphClear
4:15 PM60.4 °F36.3 °F41 %30.04 in10.0 miWNW (290°)6.9 mphClear
4:35 PM60.4 °F36.1 °F40 %30.04 in10.0 miNNW (330°)4.6 mphClear
4:55 PM60.1 °F36.1 °F41 %30.04 in10.0 miNNW (330°)4.6 mphClear
5:15 PM59.5 °F36.1 °F42 %30.04 in10.0 miNNW (330°)5.8 mphClear
5:35 PM58.5 °F36.3 °F44 %30.04 in10.0 miNW (320°)5.8 mphClear
5:55 PM57.2 °F36.7 °F46 %30.05 in10.0 miNorth (350°)4.6 mphClear
6:15 PM55.6 °F37.0 °F50 %30.05 in10.0 miNNW (330°)3.5 mphClear
6:35 PM54.9 °F36.5 °F50 %30.05 in10.0 miCalmClear
6:55 PM53.8 °F37.2 °F54 %30.06 in10.0 miCalmClear
7:15 PM52.9 °F37.4 °F56 %30.06 in10.0 miCalmClear
7:35 PM52.0 °F37.4 °F58 %30.06 in10.0 miNorth (360°)3.5 mphClear
7:55 PM50.9 °F38.1 °F62 %30.07 in10.0 miNNW (340°)3.5 mphClear
8:15 PM50.9 °F37.4 °F60 %30.07 in10.0 miNorth (360°)3.5 mphClear
8:35 PM49.5 °F37.6 °F64 %30.08 in10.0 miNNW (330°)3.5 mphClear
8:55 PM49.3 °F37.8 °F65 %30.08 in10.0 miCalmClear
9:15 PM48.7 °F37.9 °F66 %30.08 in10.0 miNorth (350°)3.5 mphClear
9:35 PM48.0 °F37.4 °F67 %30.09 in10.0 miNorth (360°)3.5 mphClear
9:55 PM47.8 °F37.6 °F68 %30.10 in10.0 miCalmClear
10:15 PM48.2 °F37.6 °F67 %30.10 in10.0 miCalmClear
10:35 PM45.5 °F37.4 °F73 %30.11 in10.0 miCalmClear
10:55 PM42.1 °F36.9 °F82 %30.11 in10.0 miCalmClear
11:15 PM42.8 °F37.6 °F82 %30.11 in10.0 miCalmClear
11:55 PM41.4 °F37.4 °F86 %30.12 in10.0 miCalmClear
Hourly data recorded from KAXH, located miles away from Rosenberg, Texas







STORIES FROM OUR PARTNERS